Regional Weather Roundup
Issued by NWS

Home | Current Version | Previous Version | Text Only | Print | Product List | Glossary Off
Versions: 1 2 3 4 5 6 7 8 9 10 11 12 13 14 15 16 17 18 19 20 21 22 23 24 25 26 27 28 29 30 31 32 33 34 35 36 37 38 39 40 41 42 43 44 45 46 47 48 49 50

000
ASUS43 KTOP 290008
RWRKS

WEATHER ROUNDUP FOR KANSAS
NATIONAL WEATHER SERVICE GOODLAND KS
700 PM CDT SAT MAY 28 2016

NOTE:  "FAIR" INDICATES FEW OR NO CLOUDS BELOW 12,000 FEET WITH NO
SIGNIFICANT WEATHER AND/OR OBSTRUCTIONS TO VISIBILITY.

KSZ001>006-013>018-027>032-041>047-290100-
NORTHWEST KANSAS

CITY           SKY/WX    TMP DP  RH WIND       PRES   REMARKS
GOODLAND       SUNNY     75  42  30 W7        29.98S
6HR MIN TEMP:  69; 6HR MAX TEMP:  76;

HAYS           SUNNY     77  52  41 SW5       29.96R
HILL CITY      SUNNY     80  47  31 VRB5      29.95R
6HR MIN TEMP:  73; 6HR MAX TEMP:  80;

RUSSELL        SUNNY     76  53  44 SW5       29.95R
6HR MIN TEMP:  70; 6HR MAX TEMP:  77;

$$

KSZ061>065-074>080-084>089-290100-
SOUTHWEST KANSAS

CITY           SKY/WX    TMP DP  RH WIND       PRES   REMARKS
DODGE CITY     SUNNY     78  47  33 VRB3      29.98S
6HR MIN TEMP:  72; 6HR MAX TEMP:  79;

ELKHART          N/A     79  46  31 SW7         N/A
GARDEN CITY    SUNNY     79  42  26 CALM      29.97F
6HR MIN TEMP:  72; 6HR MAX TEMP:  80;

GREAT BEND     SUNNY     75  54  46 SW5       29.96S
LIBERAL        SUNNY     81  45  28 S5        29.99S
PRATT          SUNNY     75  51  43 N5        29.97S HAZE
6HR MIN TEMP:  72; 6HR MAX TEMP:  76;

$$

KSZ066>073-081>083-090>101-290100-
SOUTHEAST KANSAS

CITY           SKY/WX    TMP DP  RH WIND       PRES   REMARKS
CHANUTE        MOSUNNY   78  62  57 SW9       29.95R
6HR MIN TEMP:  75; 6HR MAX TEMP:  80;

COFFEYVILLE    SUNNY     80  60  50 SW6       29.94S
6HR MIN TEMP:  77; 6HR MAX TEMP:  81;

HUTCHINSON     MOSUNNY   80  56  43 NW5       29.96R
6HR MIN TEMP:  75; 6HR MAX TEMP:  81;

MEDICINE LODGE   N/A     83  48  29 CALM      29.95R
NEWTON         MOSUNNY   79  55  44 NW7         N/A
PARSONS        MOSUNNY   79  62  56 S6        29.96S
6HR MIN TEMP:  75; 6HR MAX TEMP:  81;

WICHITA INTL   MOSUNNY   81  55  40 W7        29.94S
6HR MIN TEMP:  76; 6HR MAX TEMP:  83;

WICHITA JABRA  SUNNY     79  56  45 NW6       29.95R
6HR MIN TEMP:  73; 6HR MAX TEMP:  80;

WICHITA MCCONL SUNNY     80  55  42 W5        29.95R
WINFIELD       SUNNY     82  55  39 CALM      29.96R
6HR MIN TEMP:  77; 6HR MAX TEMP:  82;

$$

KSZ007>012-019>026-033>040-048>060-102>105-290100-
NORTHEAST KANSAS

CITY           SKY/WX    TMP DP  RH WIND       PRES   REMARKS
CONCORDIA      MOSUNNY   75  54  47 SW10      29.92R
6HR MIN TEMP:  70; 6HR MAX TEMP:  77;

EMPORIA        SUNNY     76  58  53 W6        29.94S
6HR MIN TEMP:  72; 6HR MAX TEMP:  78;

LAWRENCE       MOSUNNY   76  58  53 SW12G18   29.92S
6HR MIN TEMP:  71; 6HR MAX TEMP:  77;

MANHATTAN      SUNNY     77  56  48 SW7       29.92R
6HR MIN TEMP:  73; 6HR MAX TEMP:  79;

MARYSVILLE     MOSUNNY   75  59  57 W7        29.90S
OLATHE IND     MOSUNNY   76  59  55 SW10      29.94R
6HR MIN TEMP:  73; 6HR MAX TEMP:  77;

OLATHE EXE     PTSUNNY   74  58  57 SW8       29.94R
6HR MIN TEMP:  71; 6HR MAX TEMP:  76;

SALINA         SUNNY     79  55  43 W6        29.94S
6HR MIN TEMP:  74; 6HR MAX TEMP:  80;

TOPEKA BILLARD MOSUNNY   77  56  48 W8        29.92R
6HR MIN TEMP:  71; 6HR MAX TEMP:  78;

TOPEKA FORBES  MOSUNNY   77  59  53 SW8       29.93R
6HR MIN TEMP:  72; 6HR MAX TEMP:  78;

$$




USA.gov is the U.S. government's official web portal to all federal, state and local government web resources and services.